www.pogodaiklimat.ru

Погода и климат >> Архив погоды >> Россия >> Приморский край >> Лесозаводск


ПОГОДА в Лесозаводске

  • Прогноз погоды в Лесозаводске
  • Монитор погоды в Лесозаводске

АРХИВ ПОГОДЫ в Лесозаводске

Время (UTC), дата Ветер
(напр.,м/с)
 
Видим.   Явления Облачность Т
(С)
Тd
(С)
f
(%)
Тe
(С)
Тes
(С)
Комфортность P
(гПа)
Po
(гПа)
Тmin
(С)
Tmax
(С)
R
(мм)
R24
(мм)
S
(см)
00 16.04 ЮЗ 4
{10}
н/о н/о +14.5 -7.0 22 +14 +14 1005.8 993.3
03 16.04 ЮЗ 3
{12}
20 км 4 балла +20.4 -1.4 23 +21 +28 комфорт 1004.2 992.0
06 16.04 ЮЗ 4
{12}
н/о н/о +21.9 -2.8 19 +21 1001.4 989.3
09 16.04 ЮЗ 2
{12}
20 км ясно +20.8 -2.3 21 +21 +22 комфорт 1001.4 989.3 +22.9
12 16.04 ЮЗ 3
{12}
н/о н/о +13.6 -0.5 38 +13 1003.1 990.7
15 16.04 ЮЗ 3 20 км ясно +11.5 -4.2 33 +10 +10 1004.5 992.0
18 16.04 Ю 4
{10}
н/о н/о +11.1 -5.8 30 +9 1005.9 993.3
21 16.04 ЮЗ 3 20 км ясно +9.6 -4.4 37 +8 +8 1005.9 993.3 +9.6
00 17.04 ЮЗ 2
{10}
н/о н/о +15.5 0.0 35 +16 +16 1005.8 993.3 +9.4
03 17.04 ЮЗ 2 20 км ясно +22.4 -0.4 22 +22 +37 комфорт 1004.1 992.0
06 17.04 ЮЗ 2 н/о н/о +25.4 +0.1 19 +24 999.9 988.0
09 17.04 ЮЗ 1 20 км 8/0
[Ac cast Ci sp]
+21.2 -0.2 24 +21 +21 комфорт 998.8 986.7 +25.6
12 17.04 Ю 3
{9}
н/о н/о +16.6 -7.1 19 +17 999.0 986.7
15 17.04 Ю 3 20 км 10 баллов +15.0 -10.6 16 +15 +15 997.6 985.3
18 17.04 ЮЗ 3 н/о н/о +10.1 -2.6 41 +9 997.8 985.3
21 17.04 Ю 3 20 км 10/10 600 м
[Cb cap]
+12.5 -5.1 29 +12 +12 996.4 984.0 +9.8
00 18.04 З 4-11
{11}
н/о н/о +13.8 +2.1 45 +13 +13 997.6 985.3
03 18.04 З 6-10
{15}
20 км 10/0
[Ac As]
+8.2 -2.4 47 +5 +5 1002.0 989.3
06 18.04 З 9
{16}
н/о н/о +5.6 -5.7 44 0 1006.1 993.3
09 18.04 СЗ 7-13
{16}
20 км 10/10 600 м
[Cb cap]
+2.4 -1.9 73 -4 -4 1009.0 996.0 +16.2
12 18.04 штиль 0
{13}
н/о н/о +0.7 -3.3 75 -0 -0 1011.9 998.6
15 18.04 З 2 20 км ясно +0.6 -6.5 59 -2 -2 1013.2 1000.0
21 18.04 З 2 20 км ясно -0.6 -10.8 46 -4 -3 1013.5 1000.1 -1.1 0.3
00 19.04 СЗ 6-11
{13}
н/о н/о +3.9 -17.3 20 -0 -0 1013.4 1000.3
03 19.04 З 5 20 км ясно +6.9 -17.9 15 +4 +12 1014.2 1001.3
06 19.04 СЗ 5 н/о н/о +8.8 -17.2 14 +6 1012.8 1000.0
09 19.04 СЗ 4
{12}
20 км ясно +8.2 -17.7 14 +6 +7 1012.8 1000.0 +9.6
12 19.04 С 2 н/о н/о +3.9 -14.8 24 +2 1014.3 1001.3
15 19.04 З 1 20 км ясно -0.1 -10.9 44 -1 -1 1015.9 1002.7
18 19.04 З 1 н/о н/о -0.5 -10.4 47 -2 1015.9 1002.7
21 19.04 Ю 2 20 км ясно -3.1 -9.6 61 -7 -6 1015.5 1002.0 -4.6
00 20.04 З 1 н/о н/о +5.7 -11.7 27 +6 +6 1014.3 1001.3
03 20.04 ЮЗ 2 20 км 7 баллов +9.0 -10.5 24 +8 +13 1012.8 1000.0
06 20.04 Ю 2 н/о н/о +11.3 -12.9 17 +11 1009.9 997.3
09 20.04 штиль 0 20 км 10/0
[Ci fib]
+11.6 -13.4 16 +12 +12 1007.3 994.7 +13.0
12 20.04 ЮВ 1 н/о н/о +7.2 -12.0 24 +7 1007.5 994.7
15 20.04 ЮЗ 3 20 км 10 баллов +8.7 -6.7 33 +7 +7 1007.4 994.7
18 20.04 ЮЗ 2 н/о н/о +5.6 +0.2 68 +3 1008.9 996.0
21 20.04 ЮЗ 2 20 км 10/0
[Ci fib]
+4.1 -4.5 53 +2 +2 1010.1 997.0 +3.5
00 21.04 З 2 н/о н/о +9.9 -7.7 28 +9 +9 1011.4 998.5
03 21.04 СЗ 4 20 км 10 баллов +14.0 -16.0 11 +13 +13 1011.2 998.7
06 21.04 З 3 н/о н/о +15.6 -14.8 11 +15 1009.7 997.3
09 21.04 З 2
{10}
20 км ясно +13.2 -14.6 13 +13 +14 1009.8 997.3 +15.9
12 21.04 СЗ 2 н/о н/о +8.8 -10.1 25 +8 1012.8 1000.0
15 21.04 ЮЗ 1 20 км ясно +7.0 -11.7 25 +7 +7 1014.2 1001.3
18 21.04 ЮЗ 1 н/о н/о +3.5 -10.5 35 +3 1015.8 1002.7
21 21.04 Ю 1 20 км ясно +1.4 -8.5 48 0 +1 1016.8 1003.5 +0.4
00 22.04 ЮВ 1 н/о н/о +8.7 -7.9 30 +9 +9 1018.3 1005.3
03 22.04 В 2 20 км ясно +13.6 -13.4 14 +14 +30 опасность
простуды
1017.9 1005.3
06 22.04 З 2 н/о н/о +15.7 -14.7 11 +16 1016.5 1004.0
09 22.04 ЮЗ 1 20 км 4/0
[Ci sp]
+14.1 -13.9 13 +15 +15 1015.3 1002.7 +16.9
12 22.04 ЮВ 2 н/о н/о +8.1 -10.7 25 +7 1014.1 1001.3
15 22.04 Ю 2 20 км ясно +8.8 -12.9 20 +8 +8 1012.8 1000.0

 

Местоположение метеостанции Лесозаводск (Приморский край, Россия): широта 45.47 долгота 133.30 высота над уровнем моря 105 м.

В архиве по умолчанию представлена погода в Лесозаводске за последнюю неделю. Архивные данные за месяц целиком и за предыдущие месяцы, начиная с января 2011 года, Вы можете получить, выбрав интересующий диапазон дат из раскрывающегося списка и нажав кнопку "Ввод!".


*Определитесь, кто Вы:
робот инопланетянин человек

Внимание! Время в таблицах - всемирное. Для получения местного времени необходимо прибавить поправку, которая равна 10 ч.

Смотрите также архив погоды в соседних городах и на ближайших метеорологических станциях:

Погода в Хулине (Хэйлунцзян, Китай) (43 км)
Погода в Кировском (Приморский край, Россия) (44 км)
Погода в Дальнереченске (Приморский край, Россия) (54 км)
Погода в Малиново (Приморский край, Россия) (70 км)
Погода в Свиягино (Приморский край, Россия) (78 км)
Погода в Спасск-Дальнем (Приморский край, Россия) (101 км)
Погода в Турьем Роге (Приморский край, Россия) (107 км)
Погода в Баоцине (Хэйлунцзян, Китай) (128 км)
Погода в Астраханке (Приморский край, Россия) (132 км)
Погода в Чугуевке (Приморский край, Россия) (152 км)

Пояснения к столбцам:

Ветер - указаны скорость ветра в м/с - средняя за 10 мин, порывы в срок и между сроками (в фигурных скобках) и направление, откуда дует ветер: С - северный, СВ - северо-восточный, В - восточный, ЮВ - юго-восточный, Ю - южный, ЮЗ - юго-западный, З - западный, СЗ - северо-западный.
Видимость - горизонтальная дальность видимости в метрах или километрах. При видимости от 1 до 10 км при отсутствии осадков обычно наблюдается дымка, при ухудшении видимости до 1 км и менее - туман. В сухую погоду видимость может ухудшаться дымом, пылью или мглою.
Явления - указаны атмосферные явления, наблюдавшиеся в срок или в последний час перед сроком; фигурными скобками обозначены явления, наблюдавшиеся между сроками (за 1-3 часа до срока); квадратными скобками обозначены град или гололедные отложения с указанием их диаметра в мм.
Облачность - указаны через наклонную черту общая и нижняя облачность в баллах и высота нижней границы облаков в метрах; квадратными скобками обозначены формы облаков: Ci - перистые, Cs - перисто-слоистые, Cc - перисто-кучевые, Ac - высококучевые, As - высокослоистые, Sc - слоисто-кучевые, Ns - слоисто-дождевые, Cu - кучевые, Cb - кучево-дождевые. Подробнее классификацию облаков см. в Атласе облаков (PDF).
T - Температура воздуха - температура, измеренная на высоте 2 м над землей.
Td - Температура точки росы - температура, при понижении до которой содержащийся в воздухе водяной пар достигнет насыщения.
f - Относительная влажность воздуха - влажноcть воздуха, измеренная на высоте 2 м над землей.
Te - Эффективная температура - температура, которую ощущает одетый по сезону человек в тени. Характеристика душности погоды. При расчете учитывается влияние влажности воздуха и скорости ветра на теплоощущения человека.
Tes - Эффективная температура на солнце - температура, которую ощущает человек, с поправкой на солнечный нагрев. Характеристика знойности погоды. Зависит от высоты солнца над горизонтом, облачности и скорости ветра. Ночью, в пасмурную погоду, а также при ветре 12 м/с и более поправка равна нулю.
P - Атмосферное давление - приведенное к уровню моря атмосферное давление.
Po - Атмосферное давление - измеренное на уровне метеостанции атмосферное давление.
Tmin - Минимальная температура - минимум температуры воздуха на высоте 2 м над землей.
Tmax - Максимальная температура - максимум температуры воздуха на высоте 2 м над землей.
R - Количество осадков - Количество выпавших осадков за период времени, мм. При наведении курсора мыши на число - период времени, за который выпало указанное количество осадков.
R24 - Количество осадков - Количество выпавших осадков за 24 часа, мм.
S - Снежный покров - Высота снежного покрова, см. При наведении курсора мыши на число - состояние снежного покрова и степень покрытия местности в баллах.